| time (UTC) | temp C | wind direction | speed KPH | gust KPH | rain 1hr cm | rain 24hr cm | rain mn cm | humidity % | barometer mb |
| 20260505140246 | 12 | 56 | 8.0 | 11.3 | 0.00 | 2.51 | 2.51 | 92 | 1006.6 |
| 20260505130210 | 13 | 91 | 4.8 | 12.9 | 0.00 | 2.51 | 2.51 | 93 | 1006.9 |
| 20260505124700 | 13 | 93 | 3.2 | 12.9 | 0.00 | 2.51 | 2.51 | 93 | 1006.5 |
| 20260505124157 | 13 | 52 | 8.0 | 11.3 | 0.00 | 2.51 | 2.51 | 94 | 1006.4 |
| 20260505123653 | 13 | 76 | 4.8 | 9.7 | 0.00 | 2.51 | 2.51 | 94 | 1006.4 |
| 20260505123150 | 14 | 96 | 6.4 | 9.7 | 0.00 | 2.51 | 2.51 | 94 | 1006.4 |
| 20260505122646 | 14 | 82 | 1.6 | 11.3 | 0.00 | 2.51 | 2.51 | 94 | 1006.2 |
| 20260505122144 | 15 | 33 | 4.8 | 11.3 | 0.00 | 2.51 | 2.51 | 95 | 1006.4 |
| 20260505121640 | 15 | 78 | 6.4 | 12.9 | 0.00 | 2.51 | 2.51 | 95 | 1005.9 |
| 20260505121137 | 15 | 53 | 3.2 | 6.4 | 0.00 | 2.51 | 2.51 | 95 | 1005.9 |
| 20260505120634 | 15 | 101 | 4.8 | 11.3 | 0.00 | 2.51 | 2.51 | 96 | 1005.7 |
| 20260505120130 | 15 | 52 | 9.7 | 11.3 | 0.00 | 2.51 | 2.51 | 96 | 1005.6 |
| 20260505115629 | 15 | 100 | 3.2 | 3.2 | 0.00 | 2.51 | 2.51 | 96 | 1005.5 |
| 20260505115127 | 15 | 98 | 3.2 | 4.8 | 0.00 | 2.51 | 2.51 | 96 | 1005.4 |
| 20260505114624 | 15 | 103 | 0.0 | 1.6 | 0.00 | 2.51 | 2.51 | 96 | 1005.2 |
| 20260505114120 | 15 | 62 | 3.2 | 4.8 | 0.00 | 2.51 | 2.51 | 96 | 1005.2 |
| 20260505113617 | 15 | 79 | 3.2 | 3.2 | 0.00 | 2.51 | 2.51 | 96 | 1005.3 |
| 20260505113114 | 15 | 80 | 3.2 | 4.8 | 0.00 | 2.51 | 2.51 | 96 | 1005.4 |
| 20260505112610 | 15 | 109 | 1.6 | 3.2 | 0.00 | 2.51 | 2.51 | 96 | 1005.1 |
| 20260505112109 | 15 | 121 | 0.0 | 0.0 | 0.00 | 2.51 | 2.51 | 96 | 1005.1 |
| 20260505111607 | 15 | 103 | 1.6 | 3.2 | 0.00 | 2.51 | 2.51 | 96 | 1005.0 |
| 20260505111103 | 15 | 120 | 1.6 | 3.2 | 0.00 | 2.51 | 2.51 | 96 | 1004.9 |
| 20260505110600 | 15 | 117 | 1.6 | 3.2 | 0.00 | 2.51 | 2.51 | 96 | 1005.2 |
| 20260505102033 | 15 | 45 | 3.2 | 4.8 | 0.18 | 2.51 | 2.51 | 95 | 1005.1 |
| 20260505101531 | 15 | 43 | 3.2 | 4.8 | 0.48 | 2.51 | 2.51 | 95 | 1005.2 |
| 20260505101027 | 15 | 77 | 1.6 | 1.6 | 0.30 | 2.49 | 2.49 | 95 | 1005.1 |
| 20260505100524 | 15 | 186 | 0.0 | 1.6 | 0.30 | 2.44 | 2.44 | 94 | 1005.2 |
| 20260505100021 | 15 | 166 | 0.0 | 3.2 | 2.16 | 2.44 | 2.44 | 94 | 1005.3 |
| 20260505095517 | 15 | 36 | 9.7 | 12.9 | 1.68 | 2.34 | 2.34 | 95 | 1005.9 |
| 20260505095014 | 15 | 326 | 3.2 | 3.2 | 0.13 | 2.08 | 2.08 | 94 | 1005.4 |
| 20260505094510 | 15 | 147 | 0.0 | 0.0 | 0.00 | 2.06 | 2.06 | 94 | 1004.8 |
| 20260505094007 | 15 | 152 | 0.0 | 3.2 | 0.48 | 2.06 | 2.06 | 94 | 1004.6 |
| 20260505093503 | 15 | 159 | 0.0 | 3.2 | 0.48 | 2.06 | 2.06 | 94 | 1004.5 |
| 20260505093000 | 15 | 166 | 0.0 | 3.2 | 0.00 | 1.98 | 1.98 | 94 | 1004.4 |
| 20260505092458 | 15 | 218 | 0.0 | 1.6 | 0.30 | 1.98 | 1.98 | 94 | 1004.6 |
| 20260505091955 | 15 | 177 | 3.2 | 6.4 | 0.30 | 1.96 | 1.96 | 94 | 1004.6 |
| 20260505091453 | 15 | 199 | 6.4 | 12.9 | 0.30 | 1.93 | 1.93 | 95 | 1004.7 |
| 20260505090951 | 16 | 149 | 6.4 | 6.4 | 0.30 | 1.91 | 1.91 | 95 | 1004.3 |
| 20260505090449 | 16 | 127 | 4.8 | 9.7 | 0.30 | 1.85 | 1.85 | 95 | 1004.5 |
| 20260505085945 | 16 | 171 | 3.2 | 4.8 | 1.27 | 1.85 | 1.85 | 95 | 1004.8 |
| 20260505085443 | 16 | 223 | 3.2 | 9.7 | 1.07 | 1.78 | 1.78 | 96 | 1005.4 |
| 20260505084942 | 16 | 251 | 9.7 | 12.9 | 0.43 | 1.65 | 1.65 | 96 | 1005.1 |
| 20260505084440 | 16 | 156 | 3.2 | 9.7 | 0.89 | 1.60 | 1.60 | 96 | 1004.9 |
| 20260505083937 | 16 | 134 | 4.8 | 12.9 | 0.89 | 1.55 | 1.55 | 96 | 1004.9 |
| 20260505083434 | 16 | 222 | 3.2 | 4.8 | 0.61 | 1.45 | 1.45 | 95 | 1005.3 |
| 20260505082930 | 16 | 219 | 1.6 | 3.2 | 0.48 | 1.40 | 1.40 | 95 | 1005.0 |
| 20260505082426 | 16 | 120 | 1.6 | 6.4 | 0.89 | 1.35 | 1.35 | 95 | 1004.8 |
| 20260505081923 | 16 | 132 | 4.8 | 9.7 | 1.19 | 1.32 | 1.32 | 95 | 1004.5 |
| 20260505081420 | 16 | 144 | 3.2 | 6.4 | 0.79 | 1.19 | 1.19 | 95 | 1004.4 |
| 20260505080917 | 16 | 249 | 4.8 | 4.8 | 0.30 | 1.09 | 1.09 | 95 | 1004.9 |
| 20260505080413 | 16 | 182 | 3.2 | 6.4 | 0.30 | 1.07 | 1.07 | 95 | 1004.1 |
| 20260505075908 | 16 | 141 | 0.0 | 3.2 | 0.13 | 1.04 | 1.04 | 95 | 1004.1 |
| 20260505075405 | 16 | 169 | 1.6 | 6.4 | 0.00 | 1.02 | 1.02 | 95 | 1004.7 |
| 20260505074903 | 16 | 226 | 3.2 | 9.7 | 0.18 | 1.02 | 1.02 | 95 | 1004.6 |
| 20260505074400 | 16 | 221 | 4.8 | 9.7 | 0.48 | 1.02 | 1.02 | 94 | 1004.9 |
| 20260505073857 | 16 | 133 | 1.6 | 4.8 | 0.30 | 0.99 | 0.99 | 94 | 1005.3 |
| 20260505073355 | 16 | 159 | 4.8 | 6.4 | 0.13 | 0.94 | 0.94 | 94 | 1006.2 |
| 20260505072852 | 16 | 116 | 0.0 | 3.2 | 0.30 | 0.94 | 0.94 | 94 | 1006.2 |
| 20260505072348 | 16 | 110 | 0.0 | 1.6 | 0.48 | 0.91 | 0.91 | 94 | 1006.2 |
| 20260505071844 | 16 | 247 | 3.2 | 3.2 | 0.48 | 0.89 | 0.89 | 93 | 1007.0 |
| 20260505071340 | 16 | 163 | 0.0 | 0.0 | 0.48 | 0.84 | 0.84 | 93 | 1006.4 |
| 20260505070839 | 16 | 165 | 0.0 | 4.8 | 0.43 | 0.81 | 0.81 | 93 | 1006.5 |
| 20260505070335 | 16 | 130 | 0.0 | 0.0 | 0.43 | 0.76 | 0.76 | 93 | 1006.6 |
| 20260505065830 | 16 | 171 | 0.0 | 0.0 | 0.61 | 0.74 | 0.74 | 93 | 1007.3 |
| 20260505065327 | 16 | 175 | 0.0 | 3.2 | 0.48 | 0.69 | 0.69 | 92 | 1007.2 |
| 20260505064824 | 16 | 223 | 3.2 | 6.4 | 0.48 | 0.64 | 0.64 | 92 | 1007.9 |
| 20260505064321 | 16 | 223 | 3.2 | 4.8 | 0.61 | 0.61 | 0.61 | 92 | 1007.9 |
| 20260505063819 | 16 | 222 | 1.6 | 4.8 | 0.61 | 0.56 | 0.56 | 91 | 1007.7 |
| 20260505063315 | 16 | 244 | 3.2 | 11.3 | 0.89 | 0.51 | 0.51 | 91 | 1007.9 |
| 20260505062812 | 16 | 246 | 8.0 | 17.7 | 1.37 | 0.46 | 0.46 | 90 | 1008.1 |
| 20260505062309 | 17 | 250 | 6.4 | 9.7 | 1.07 | 0.33 | 0.33 | 88 | 1007.9 |
| 20260505061806 | 17 | 276 | 8.0 | 11.3 | 0.79 | 0.23 | 0.23 | 87 | 1007.7 |
| 20260505061304 | 17 | 284 | 4.8 | 6.4 | 0.43 | 0.15 | 0.15 | 85 | 1007.0 |
| 20260505060801 | 17 | 264 | 3.2 | 4.8 | 0.30 | 0.10 | 0.10 | 83 | 1006.7 |
| 20260505060258 | 17 | 252 | 3.2 | 4.8 | 0.30 | 0.08 | 0.08 | 81 | 1006.4 |
| 20260505055753 | 18 | 148 | 3.2 | 11.3 | 0.30 | 0.05 | 0.05 | 80 | 1005.8 |
| 20260505055250 | 18 | 255 | 9.7 | 12.9 | 0.18 | 0.03 | 0.03 | 78 | 1005.8 |
| 20260505054747 | 18 | 243 | 14.5 | 17.7 | 0.00 | 0.00 | 0.00 | 76 | 1005.5 |
| 20260505054245 | 18 | 233 | 4.8 | 14.5 | 0.00 | 0.00 | 0.00 | 74 | 1005.4 |
| 20260505053743 | 19 | 252 | 4.8 | 6.4 | 0.00 | 0.00 | 0.00 | 72 | 1005.2 |
| 20260505053239 | 19 | 175 | 1.6 | 4.8 | 0.00 | 0.00 | 0.00 | 72 | 1005.0 |
| 20260505052737 | 20 | 312 | 3.2 | 3.2 | 0.00 | 0.00 | 0.00 | 70 | 1005.1 |
| 20260505052233 | 20 | 194 | 0.0 | 6.4 | 0.00 | 0.00 | 0.00 | 69 | 1004.8 |
| 20260505051730 | 20 | 137 | 4.8 | 12.9 | 0.00 | 0.00 | 0.00 | 68 | 1005.0 |
| 20260505051229 | 20 | 191 | 1.6 | 9.7 | 0.00 | 0.00 | 0.00 | 69 | 1004.9 |
| 20260505050726 | 20 | 70 | 6.4 | 12.9 | 0.00 | 0.00 | 0.00 | 69 | 1005.1 |
| 20260505050224 | 20 | 161 | 3.2 | 4.8 | 0.00 | 0.00 | 0.00 | 69 | 1004.9 |
| 20260505041654 | 18 | 181 | 1.6 | 4.8 | 0.00 | 0.00 | 0.00 | 72 | 1005.2 |
| 20260505041151 | 18 | 240 | 4.8 | 6.4 | 0.00 | 0.00 | 0.00 | 72 | 1005.2 |
| 20260505040648 | 18 | 195 | 3.2 | 3.2 | 0.00 | 0.00 | 0.00 | 73 | 1005.2 |
| 20260505040145 | 18 | 160 | 1.6 | 3.2 | 0.00 | 0.00 | 0.00 | 73 | 1005.3 |
| 20260505035642 | 18 | 149 | 1.6 | 4.8 | 0.00 | 0.00 | 0.00 | 73 | 1005.4 |
| 20260505035138 | 18 | 145 | 0.0 | 3.2 | 0.00 | 0.00 | 0.00 | 73 | 1005.5 |
| 20260505034634 | 18 | 141 | 0.0 | 4.8 | 0.00 | 0.00 | 0.00 | 73 | 1005.7 |
| 20260505034132 | 18 | 210 | 1.6 | 3.2 | 0.00 | 0.00 | 0.00 | 73 | 1005.8 |
| 20260505033628 | 18 | 186 | 1.6 | 3.2 | 0.00 | 0.00 | 0.00 | 73 | 1005.7 |
| 20260505033127 | 18 | 127 | 1.6 | 1.6 | 0.00 | 0.00 | 0.00 | 73 | 1005.8 |
| 20260505032625 | 18 | 135 | 0.0 | 3.2 | 0.00 | 0.00 | 0.00 | 73 | 1005.6 |
| 20260505032120 | 18 | 219 | 0.0 | 1.6 | 0.00 | 0.00 | 0.00 | 73 | 1005.7 |
| 20260505031618 | 18 | 165 | 0.0 | 1.6 | 0.00 | 0.00 | 0.00 | 72 | 1006.2 |
| 20260505031114 | 18 | 191 | 1.6 | 3.2 | 0.00 | 0.00 | 0.00 | 73 | 1006.0 |
| 20260505030611 | 18 | 171 | 3.2 | 4.8 | 0.00 | 0.00 | 0.00 | 73 | 1005.9 |
| 20260505030107 | 18 | 129 | 0.0 | 0.0 | 0.00 | 0.00 | 0.00 | 73 | 1006.0 |
| 20260505025603 | 18 | 167 | 3.2 | 4.8 | 0.00 | 0.00 | 0.00 | 72 | 1006.2 |
| 20260505025102 | 18 | 179 | 3.2 | 4.8 | 0.00 | 0.00 | 0.00 | 72 | 1005.7 |
| 20260505024559 | 18 | 161 | 0.0 | 4.8 | 0.00 | 0.00 | 0.00 | 72 | 1005.9 |
| 20260505024056 | 19 | 155 | 0.0 | 0.0 | 0.00 | 0.00 | 0.00 | 71 | 1005.9 |
| 20260505023553 | 19 | 174 | 0.0 | 0.0 | 0.00 | 0.00 | 0.00 | 70 | 1005.9 |
| 20260505023051 | 19 | 116 | 0.0 | 0.0 | 0.00 | 0.00 | 0.00 | 69 | 1005.9 |
| 20260505022548 | 20 | 163 | 0.0 | 1.6 | 0.00 | 0.00 | 0.00 | 68 | 1005.7 |
| 20260505022045 | 20 | 132 | 0.0 | 0.0 | 0.00 | 0.00 | 0.00 | 67 | 1005.5 |
| 20260505021542 | 20 | 178 | 0.0 | 0.0 | 0.00 | 0.00 | 0.00 | 66 | 1005.6 |
| 20260505021038 | 20 | 159 | 0.0 | 3.2 | 0.00 | 0.00 | 0.00 | 65 | 1005.6 |
| 20260505020538 | 20 | 222 | 1.6 | 3.2 | 0.00 | 0.00 | 0.00 | 65 | 1005.5 |
| 20260505020035 | 20 | 134 | 0.0 | 1.6 | 0.00 | 0.00 | 0.00 | 65 | 1005.3 |
| 20260505015533 | 20 | 176 | 1.6 | 3.2 | 0.00 | 0.00 | 0.00 | 65 | 1005.4 |
| 20260505015029 | 20 | 236 | 3.2 | 3.2 | 0.00 | 0.00 | 0.00 | 64 | 1005.2 |
| 20260505014526 | 20 | 196 | 3.2 | 4.8 | 0.00 | 0.00 | 0.00 | 65 | 1005.4 |
| 20260505014023 | 20 | 156 | 0.0 | 4.8 | 0.00 | 0.00 | 0.00 | 65 | 1005.4 |
| 20260505013520 | 20 | 164 | 0.0 | 4.8 | 0.00 | 0.00 | 0.00 | 64 | 1005.3 |
| 20260505013018 | 20 | 125 | 0.0 | 3.2 | 0.00 | 0.00 | 0.00 | 64 | 1005.2 |
| 20260505012516 | 21 | 236 | 1.6 | 3.2 | 0.00 | 0.00 | 0.00 | 63 | 1005.3 |
| 20260505012013 | 21 | 240 | 1.6 | 9.7 | 0.00 | 0.00 | 0.00 | 63 | 1005.2 |
| 20260505011508 | 21 | 209 | 1.6 | 9.7 | 0.00 | 0.00 | 0.00 | 62 | 1005.4 |
| 20260505011005 | 21 | 191 | 1.6 | 6.4 | 0.00 | 0.00 | 0.00 | 63 | 1005.1 |
| 20260505010501 | 21 | 145 | 1.6 | 6.4 | 0.00 | 0.00 | 0.00 | 62 | 1005.1 |
| 20260505005957 | 21 | 240 | 3.2 | 6.4 | 0.00 | 0.00 | 0.00 | 61 | 1005.2 |
| 20260505005454 | 21 | 187 | 8.0 | 11.3 | 0.00 | 0.00 | 0.00 | 60 | 1005.1 |
| 20260505004952 | 22 | 213 | 4.8 | 9.7 | 0.00 | 0.00 | 0.00 | 60 | 1005.3 |
| 20260505004448 | 22 | 163 | 3.2 | 4.8 | 0.00 | 0.00 | 0.00 | 60 | 1005.0 |
| 20260505003945 | 22 | 211 | 3.2 | 9.7 | 0.00 | 0.00 | 0.00 | 59 | 1005.2 |
| 20260505003442 | 22 | 212 | 1.6 | 3.2 | 0.00 | 0.00 | 0.00 | 59 | 1005.3 |
| 20260505002938 | 22 | 209 | 1.6 | 1.6 | 0.00 | 0.00 | 0.00 | 58 | 1005.0 |
| 20260505002435 | 22 | 183 | 1.6 | 11.3 | 0.00 | 0.00 | 0.00 | 57 | 1005.0 |
| 20260505001933 | 23 | 193 | 4.8 | 6.4 | 0.00 | 0.00 | 0.00 | 56 | 1005.1 |
| 20260505001430 | 23 | 240 | 4.8 | 11.3 | 0.00 | 0.00 | 0.00 | 56 | 1005.1 |
| 20260505000927 | 23 | 236 | 4.8 | 11.3 | 0.00 | 0.00 | 0.00 | 55 | 1004.9 |
| 20260505000427 | 23 | 228 | 4.8 | 14.5 | 0.00 | 0.00 | 0.00 | 56 | 1004.8 |
| 20260504235922 | 24 | 216 | 4.8 | 17.7 | 0.00 | 0.00 | 0.00 | 56 | 1004.8 |
| 20260504235419 | 24 | 157 | 0.0 | 1.6 | 0.00 | 0.00 | 0.00 | 57 | 1004.7 |
| 20260504234915 | 24 | 230 | 4.8 | 4.8 | 0.00 | 0.00 | 0.00 | 56 | 1004.7 |
| 20260504234413 | 24 | 249 | 8.0 | 14.5 | 0.00 | 0.00 | 0.00 | 54 | 1004.8 |
| 20260504233909 | 25 | 214 | 8.0 | 11.3 | 0.00 | 0.00 | 0.00 | 54 | 1004.7 |
| 20260504233405 | 25 | 271 | 9.7 | 12.9 | 0.00 | 0.00 | 0.00 | 52 | 1004.7 |
| 20260504232902 | 25 | 209 | 1.6 | 3.2 | 0.00 | 0.00 | 0.00 | 52 | 1004.9 |
| 20260504232359 | 25 | 192 | 6.4 | 11.3 | 0.00 | 0.00 | 0.00 | 52 | 1004.6 |
| 20260504231856 | 25 | 229 | 4.8 | 14.5 | 0.00 | 0.00 | 0.00 | 52 | 1004.5 |
| 20260504231352 | 25 | 215 | 11.3 | 16.1 | 0.00 | 0.00 | 0.00 | 50 | 1004.8 |
| 20260504230848 | 25 | 234 | 8.0 | 27.4 | 0.00 | 0.00 | 0.00 | 50 | 1004.8 |
| 20260504230346 | 26 | 75 | 6.4 | 16.1 | 0.00 | 0.00 | 0.00 | 49 | 1004.8 |
| 20260504225845 | 26 | 202 | 6.4 | 14.5 | 0.00 | 0.00 | 0.00 | 49 | 1004.7 |
| 20260504225341 | 26 | 198 | 6.4 | 12.9 | 0.00 | 0.00 | 0.00 | 49 | 1004.7 |
| 20260504224839 | 26 | 225 | 8.0 | 14.5 | 0.00 | 0.00 | 0.00 | 48 | 1004.6 |
| 20260504224335 | 26 | 230 | 6.4 | 14.5 | 0.00 | 0.00 | 0.00 | 49 | 1004.6 |
| 20260504223832 | 26 | 253 | 14.5 | 16.1 | 0.00 | 0.00 | 0.00 | 48 | 1004.6 |
| 20260504223327 | 26 | 209 | 6.4 | 16.1 | 0.00 | 0.00 | 0.00 | 48 | 1004.5 |
| 20260504222824 | 26 | 121 | 8.0 | 14.5 | 0.00 | 0.00 | 0.00 | 49 | 1004.4 |
| 20260504222321 | 26 | 103 | 4.8 | 20.9 | 0.00 | 0.00 | 0.00 | 47 | 1004.5 |
| 20260504221820 | 27 | 225 | 9.7 | 20.9 | 0.00 | 0.00 | 0.00 | 47 | 1004.6 |
| 20260504221316 | 27 | 304 | 3.2 | 11.3 | 0.00 | 0.00 | 0.00 | 51 | 1004.5 |
| 20260504220813 | 27 | 243 | 4.8 | 20.9 | 0.00 | 0.00 | 0.00 | 48 | 1004.5 |
| 20260504220310 | 27 | 196 | 6.4 | 17.7 | 0.00 | 0.00 | 0.00 | 48 | 1004.4 |
| 20260504215807 | 26 | 222 | 3.2 | 6.4 | 0.00 | 0.00 | 0.00 | 52 | 1004.5 |
| 20260504215304 | 27 | 229 | 4.8 | 12.9 | 0.00 | 0.00 | 0.00 | 49 | 1004.4 |
| 20260504214759 | 27 | 253 | 3.2 | 27.4 | 0.00 | 0.00 | 0.00 | 48 | 1004.6 |
| 20260504214256 | 27 | 221 | 8.0 | 12.9 | 0.00 | 0.00 | 0.00 | 48 | 1004.5 |
| 20260504213753 | 27 | 181 | 3.2 | 11.3 | 0.00 | 0.00 | 0.00 | 50 | 1004.6 |
| 20260504213249 | 27 | 254 | 6.4 | 11.3 | 0.00 | 0.00 | 0.00 | 47 | 1004.6 |
| 20260504212746 | 27 | 211 | 6.4 | 11.3 | 0.00 | 0.00 | 0.00 | 48 | 1004.6 |
| 20260504212242 | 27 | 248 | 3.2 | 14.5 | 0.00 | 0.00 | 0.00 | 49 | 1004.6 |
| 20260504211740 | 27 | 177 | 4.8 | 17.7 | 0.00 | 0.00 | 0.00 | 49 | 1004.7 |
| 20260504211236 | 27 | 92 | 9.7 | 14.5 | 0.00 | 0.00 | 0.00 | 48 | 1004.7 |
| 20260504210734 | 28 | 183 | 8.0 | 20.9 | 0.00 | 0.00 | 0.00 | 46 | 1004.9 |
| 20260504210231 | 27 | 226 | 3.2 | 11.3 | 0.00 | 0.00 | 0.00 | 50 | 1004.9 |
| 20260504205727 | 27 | 227 | 6.4 | 24.1 | 0.00 | 0.00 | 0.00 | 48 | 1004.9 |
| 20260504205225 | 27 | 230 | 9.7 | 17.7 | 0.00 | 0.00 | 0.00 | 48 | 1005.0 |
| 20260504204723 | 27 | 246 | 17.7 | 27.4 | 0.00 | 0.00 | 0.00 | 46 | 1005.1 |
| 20260504204222 | 27 | 242 | 12.9 | 20.9 | 0.00 | 0.00 | 0.00 | 45 | 1005.1 |
| 20260504203721 | 27 | 215 | 8.0 | 14.5 | 0.00 | 0.00 | 0.00 | 47 | 1005.0 |
| 20260504203218 | 27 | 170 | 4.8 | 22.5 | 0.00 | 0.00 | 0.00 | 48 | 1005.3 |
| 20260504202717 | 27 | 219 | 12.9 | 20.9 | 0.00 | 0.00 | 0.00 | 48 | 1005.2 |
| 20260504202215 | 27 | 125 | 12.9 | 29.0 | 0.00 | 0.00 | 0.00 | 45 | 1005.2 |
| 20260504201712 | 27 | 201 | 4.8 | 17.7 | 0.00 | 0.00 | 0.00 | 48 | 1005.3 |
| 20260504201209 | 27 | 210 | 8.0 | 11.3 | 0.00 | 0.00 | 0.00 | 49 | 1005.4 |
| 20260504200707 | 27 | 279 | 3.2 | 12.9 | 0.00 | 0.00 | 0.00 | 50 | 1005.5 |
| 20260504200202 | 27 | 209 | 6.4 | 12.9 | 0.00 | 0.00 | 0.00 | 47 | 1005.6 |
| 20260504195659 | 27 | 212 | 4.8 | 17.7 | 0.00 | 0.00 | 0.00 | 49 | 1005.6 |
| 20260504195155 | 27 | 212 | 8.0 | 17.7 | 0.00 | 0.00 | 0.00 | 49 | 1005.6 |
| 20260504194652 | 27 | 230 | 14.5 | 25.7 | 0.00 | 0.00 | 0.00 | 47 | 1005.6 |
| 20260504194148 | 27 | 235 | 12.9 | 22.5 | 0.00 | 0.00 | 0.00 | 48 | 1005.9 |
| 20260504193644 | 27 | 222 | 17.7 | 25.7 | 0.00 | 0.00 | 0.00 | 46 | 1006.0 |
| 20260504193143 | 27 | 316 | 11.3 | 27.4 | 0.00 | 0.00 | 0.00 | 47 | 1006.0 |
| 20260504192640 | 27 | 221 | 4.8 | 9.7 | 0.00 | 0.00 | 0.00 | 50 | 1005.9 |
| 20260504192138 | 27 | 170 | 6.4 | 16.1 | 0.00 | 0.00 | 0.00 | 50 | 1006.0 |
| 20260504191636 | 27 | 219 | 8.0 | 25.7 | 0.00 | 0.00 | 0.00 | 47 | 1006.2 |
| 20260504191132 | 27 | 243 | 11.3 | 20.9 | 0.00 | 0.00 | 0.00 | 49 | 1006.0 |
| 20260504190628 | 27 | 272 | 6.4 | 9.7 | 0.00 | 0.00 | 0.00 | 48 | 1006.2 |
| 20260504190125 | 27 | 160 | 11.3 | 17.7 | 0.00 | 0.00 | 0.00 | 48 | 1006.2 |
| 20260504185621 | 27 | 233 | 6.4 | 14.5 | 0.00 | 0.00 | 0.00 | 49 | 1005.9 |
| 20260504185118 | 27 | 252 | 9.7 | 12.9 | 0.00 | 0.00 | 0.00 | 48 | 1005.8 |
| 20260504184614 | 26 | 219 | 8.0 | 9.7 | 0.00 | 0.00 | 0.00 | 52 | 1005.9 |
| 20260504184109 | 26 | 198 | 9.7 | 12.9 | 0.00 | 0.00 | 0.00 | 47 | 1005.9 |
| 20260504183607 | 26 | 269 | 9.7 | 22.5 | 0.00 | 0.00 | 0.00 | 49 | 1006.0 |
| 20260504183104 | 26 | 249 | 11.3 | 17.7 | 0.00 | 0.00 | 0.00 | 50 | 1006.2 |
| 20260504182601 | 26 | 255 | 11.3 | 16.1 | 0.00 | 0.00 | 0.00 | 49 | 1006.2 |
| 20260504182059 | 26 | 190 | 6.4 | 11.3 | 0.00 | 0.00 | 0.00 | 52 | 1005.9 |
| 20260504181556 | 26 | 234 | 11.3 | 27.4 | 0.00 | 0.00 | 0.00 | 48 | 1006.4 |
| 20260504181054 | 26 | 308 | 12.9 | 22.5 | 0.00 | 0.00 | 0.00 | 49 | 1006.5 |
| 20260504180552 | 26 | 185 | 8.0 | 14.5 | 0.00 | 0.00 | 0.00 | 51 | 1006.4 |
| 20260504180051 | 25 | 253 | 9.7 | 22.5 | 0.00 | 0.00 | 0.00 | 49 | 1006.3 |
| 20260504175548 | 25 | 242 | 11.3 | 12.9 | 0.00 | 0.00 | 0.00 | 51 | 1006.5 |
| 20260504175045 | 25 | 234 | 8.0 | 16.1 | 0.00 | 0.00 | 0.00 | 50 | 1006.4 |
| 20260504174543 | 26 | 245 | 12.9 | 22.5 | 0.00 | 0.00 | 0.00 | 48 | 1006.4 |
| 20260504174039 | 25 | 217 | 6.4 | 22.5 | 0.00 | 0.00 | 0.00 | 49 | 1006.8 |
| 20260504173536 | 25 | 220 | 6.4 | 22.5 | 0.00 | 0.00 | 0.00 | 51 | 1006.6 |
| 20260504173033 | 25 | 223 | 12.9 | 17.7 | 0.00 | 0.00 | 0.00 | 51 | 1007.0 |
| 20260504172529 | 25 | 264 | 17.7 | 25.7 | 0.00 | 0.00 | 0.00 | 49 | 1006.8 |
| 20260504172026 | 25 | 250 | 9.7 | 25.7 | 0.00 | 0.00 | 0.00 | 50 | 1006.8 |
| 20260504171523 | 25 | 182 | 6.4 | 14.5 | 0.00 | 0.00 | 0.00 | 51 | 1006.5 |
| 20260504171020 | 25 | 258 | 9.7 | 22.5 | 0.00 | 0.00 | 0.00 | 51 | 1006.9 |
| 20260504170516 | 25 | 211 | 8.0 | 17.7 | 0.00 | 0.00 | 0.00 | 51 | 1007.0 |
| 20260504160436 | 23 | 227 | 12.9 | 17.7 | 0.00 | 0.00 | 0.00 | 52 | 1007.2 |
| 20260504150900 | 22 | 244 | 12.9 | 22.5 | 0.00 | 0.00 | 0.00 | 54 | 1007.6 |
| 20260504150356 | 22 | 112 | 4.8 | 16.1 | 0.00 | 0.00 | 0.00 | 55 | 1007.6 |